This demonstration page uses our WeatherBlox Daily Observations layout. Learn more.

Left ArrowRight Arrow

31.31129, -92.44514

Hourly Observations for August 18, 2016

Temp ( °F °C ) Dew Point ( °F °C ) Humidity (%) Winds ( mph kmh ) Pressure ( in mb ) Visibility ( mi km ) Precip ( " mm )
12:53 am 00:53 Clear 73 22.8 72 22.2 96 96 Calm 30.11 1020 9 14 0.00 0.00
1:53 am 01:53 Clear 73 22.8 73 22.8 100 100 E 6 9 30.09 1019 10 16 0.00 0.00
2:41 am 02:41 Partly Cloudy 73 22.8 73 22.8 100 100 SE 3 6 30.06 1018 9 14 0.00 0.00
2:50 am 02:50 Mostly Cloudy 73 23 73 23 100 100 ESE 5 7 30.06 1018 9 14 0.00 0.00
2:53 am 02:53 Mostly Cloudy 73 22.8 73 22.8 100 100 ESE 3 6 30.07 1018 9 14 0.00 0.00
3:14 am 03:14 Partly Cloudy 73 22.8 73 22.8 100 100 ESE 5 7 30.06 1018 9 14 0.00 0.00
3:21 am 03:21 Mostly Cloudy 73 22.8 73 22.8 100 100 Calm 30.06 1018 9 14 0.00 0.00
3:53 am 03:53 Cloudy 73 22.8 73 22.8 100 100 E 3 6 30.07 1018 8 13 0.00 0.00
4:39 am 04:39 Partly Cloudy 73 22.8 73 22.8 100 100 Calm 30.06 1018 8 13 0.00 0.00
4:53 am 04:53 Partly Cloudy 73 22.8 73 22.8 100 100 Calm 30.07 1018 8 13 0.00 0.00
5:19 am 05:19 Mostly Cloudy 73 22.8 73 22.8 100 100 Calm 30.06 1018 7 11 0.00 0.00
5:50 am 05:50 Mostly Cloudy with Mist and Fog 73 23 73 23 100 100 Calm 30.09 1019 2 3 0.00 0.00
5:53 am 05:53 Cloudy with Mist and Fog 73 22.8 73 22.8 100 100 Calm 30.09 1019 2 3 0.00 0.00
6:13 am 06:13 Mostly Cloudy with Mist and Fog 73 22.8 73 22.8 100 100 Calm 30.09 1019 1 1 0.00 0.00
6:37 am 06:37 Mostly Cloudy with Fog 73 22.8 73 22.8 100 100 Calm 30.09 1019 0 0 0.00 0.00
6:53 am 06:53 Mostly Cloudy with Fog 73 22.8 73 22.8 100 100 Calm 30.09 1019 0 0 0.00 0.00
7:53 am 07:53 Mostly Cloudy with Fog 73 22.8 73 22.8 100 100 Calm 30.10 1019 0 0 0.00 0.00
8:05 am 08:05 Mostly Cloudy with Fog 73 22.8 73 22.8 100 100 Calm 30.09 1019 1 1 0.00 0.00
8:13 am 08:13 Mostly Cloudy with Fog 73 22.8 73 22.8 100 100 ENE 3 6 30.09 1019 0 0 0.00 0.00
8:38 am 08:38 Mostly Cloudy with Mist and Fog 74 23.3 74 23.3 100 100 E 3 6 30.09 1019 1 2 0.00 0.00
8:46 am 08:46 Cloudy with Mist and Fog 74 23.3 74 23.3 100 100 SE 3 6 30.09 1019 3 5 0.00 0.00
8:53 am 08:53 Cloudy with Mist and Fog 75 23.9 75 23.9 100 100 E 3 6 30.11 1020 4 6 0.00 0.00
9:25 am 09:25 Partly Cloudy 76 24.4 75 23.9 97 97 ESE 5 7 30.09 1019 8 13 0.00 0.00
9:53 am 09:53 Sunny 80 26.7 75 23.9 85 85 ESE 5 7 30.11 1020 10 16 0.00 0.00
10:53 am 10:53 Sunny 84 28.9 75 23.9 74 74 E 5 7 30.10 1019 10 16 0.00 0.00
11:53 am 11:53 Mostly Sunny 86 30 74 23.3 67 67 VRB 5 7 30.09 1019 10 16 0.00 0.00
12:53 pm 12:53 Partly Cloudy 87 30.6 74 23.3 65 65 ESE 7 11 30.07 1018 10 16 0.00 0.00
1:53 pm 13:53 Mostly Cloudy 89 31.7 73 22.8 59 59 E 8 13 30.04 1017 10 16 0.00 0.00
2:53 pm 14:53 Mostly Cloudy 88 31.1 73 22.8 61 61 E 6 9 30.02 1017 10 16 0.00 0.00
3:38 pm 15:38 Cloudy with Nearby Thunderstorms 87 30.6 73 22.8 63 63 SSE 17 28 30.00 1016 10 16 0.00 0.00
3:53 pm 15:53 Mostly Cloudy with Nearby Thunderstorms 75 23.9 72 22.2 90 90 S 23 37 30.04 1017 7 11 0.01 0.25
4:02 pm 16:02 Cloudy with Thunderstorms 74 23.3 72 22.2 94 94 SSE 13 20 30.03 1017 3 4 0.07 1.78
4:09 pm 16:09 Cloudy with Strong Thunderstorms 74 23.3 72 22.2 94 94 S 13 20 30.03 1017 2 2 0.11 2.79
4:13 pm 16:13 Cloudy with Thunderstorms 74 23.3 72 22.2 94 94 S 10 17 30.03 1017 3 5 0.11 2.79
4:24 pm 16:24 Mostly Cloudy with Nearby Thunderstorms 74 23.3 72 22.2 94 94 ESE 6 9 30.03 1017 10 16 0.11 2.79
4:53 pm 16:53 Partly Cloudy with Nearby Thunderstorms 74 23.3 73 22.8 97 97 S 3 6 30.04 1017 10 16 0.11 2.79
5:06 pm 17:06 Mostly Sunny 74 23.3 73 22.8 97 97 S 3 6 30.03 1017 10 16 0.01 0.25
5:53 pm 17:53 Partly Cloudy with Light Rain 75 23.9 73 22.8 94 94 E 5 7 30.03 1017 6 10 0.04 1.02
6:53 pm 18:53 Sunny with Light Rain 75 23.9 74 23.3 96 96 Calm 30.02 1017 10 16 0.01 0.25
7:53 pm 19:53 Mostly Clear 74 23.3 74 23.3 100 100 NNW 3 6 30.02 1017 10 16 0.00 0.03
8:11 pm 20:11 Mostly Clear 74 23.3 74 23.3 100 100 N 5 7 30.03 1017 10 16 0.00 0.00
8:53 pm 20:53 Clear 74 23.3 74 23.3 100 100 Calm 30.02 1017 10 16 0.00 0.00
9:53 pm 21:53 Mostly Cloudy 74 23.3 74 23.3 100 100 Calm 30.05 1018 10 16 0.00 0.00
10:53 pm 22:53 Clear 74 23.3 73 22.8 97 97 NNE 5 7 30.04 1017 9 14 0.00 0.00
11:53 pm 23:53 Clear 73 22.8 73 22.8 100 100 Calm 30.04 1017 9 14 0.00 0.00

Powered by AerisWeather